[[{"header":{"parameterUnit":"m.s-1","parameterCategory":1,"la1":30.2992,"la2":30.254,"lo1":-89.0895,"lo2":-89.0443,"dy":0.0025,"dx":0.0025,"nx":19,"ny":19,"refTime":"2026-05-15T21:00:00:Z","depth":0,"parameterNumber":2,"parameterNumberName":"U-component_of_WINDS"},"data":[0,0,0,-3.2035,-3.2036,-3.2057,-3.2057,-3.2095,-3.2096,0,0,0,0,0,0,0,0,0,0,0,-3.2035,-3.2035,-3.2035,-3.2036,-3.2057,-3.2057,-3.2095,-3.2096,0,0,0,0,0,0,0,0,0,0,0,-3.2034,-3.2035,-3.2036,-3.2036,-3.2057,-3.2057,-3.2095,-3.2075,0,0,0,0,0,0,0,0,0,0,-3.2052,-3.2058,-3.2035,-3.2036,-3.2036,-3.2057,-3.2057,-3.2074,-3.2076,-3.209,0,-3.2104,0,-3.21,-3.2099,-3.2099,0,0,0,-3.2031,-3.2056,-3.2056,-3.2036,-3.2036,-3.2057,-3.2046,-3.2075,-3.2078,-3.2093,-3.2104,-3.2105,-3.2101,-3.2099,-3.2099,-3.2193,-3.2194,0,0,-3.203,-3.2042,-3.2055,-3.2059,-3.2056,-3.2046,-3.2047,-3.2077,-3.2089,-3.2104,-3.2106,-3.2102,-3.21,-3.21,-3.2192,-3.2193,0,0,0,-3.2029,-3.2041,-3.2041,-3.2057,-3.206,-3.2046,-3.2048,-3.2088,-3.2087,-3.2106,-3.2102,-3.21,-3.21,-3.2192,-3.2193,-3.2236,0,0,0,-3.2028,-3.2041,-3.204,-3.2048,-3.206,-3.2074,-3.2059,-3.2085,-3.2088,-3.2102,-3.21,-3.2101,-3.2191,-3.2192,-3.2233,-3.2254,0,0,0,-3.2031,-3.2041,-3.2047,-3.2049,-3.2058,-3.2074,-3.2074,-3.2085,-3.2085,-3.2099,-3.2101,-3.219,-3.2192,-3.2231,-3.225,-3.2281,0,0,0,-3.2037,-3.2085,-3.2048,-3.2099,-3.2058,-3.2101,-3.2074,-3.2105,-3.2122,-3.21,-3.2191,-3.2192,-3.223,-3.2247,-3.2278,-3.2308,-3.2322,0,0,-3.2104,-3.2094,-3.2123,-3.209,-3.2142,-3.2097,-3.2155,-3.2159,-3.215,-3.2179,-3.2181,-3.2234,-3.2249,-3.228,-3.24,-3.2411,0,0,0,-3.2148,-3.217,-3.2181,-3.2198,-3.2202,-3.2208,-3.2202,-3.2203,-3.2228,-3.2167,-3.2254,-3.2263,-3.2281,-3.2294,-3.2304,-3.2318,-3.22,-3.22,-3.2199,-3.2259,-3.2245,-3.2292,-3.228,-3.2297,-3.2291,-3.2303,-3.2304,-3.2284,-3.2305,-3.2313,-3.2387,-3.2404,-3.2411,-3.2426,-3.2329,-3.2329,-3.233,-3.233,-3.2355,-3.2382,-3.2355,-3.2392,-3.2376,-3.2406,-3.2403,-3.2388,-3.2413,-3.238,-3.2395,-3.2358,-3.2424,-3.2436,-3.2333,-3.2332,-3.2332,-3.2332,-3.2331,-3.2424,-3.2435,-3.2436,-3.2459,-3.2479,-3.2465,-3.2491,-3.2476,-3.2463,-3.2477,-3.2484,-3.2483,-3.2479,-3.2482,-3.2482,-3.2482,-3.2483,-3.2483,-3.2483,-3.2495,-3.2496,-3.2519,-3.2529,-3.2537,-3.2547,-3.2542,-3.255,-3.2555,-3.2543,-3.2542,-3.252,-3.2434,-3.2411,-3.2487,-3.2486,-3.2486,-3.2485,-3.2485,-3.2594,-3.257,-3.2606,-3.2615,-3.2625,-3.2645,-3.2626,-3.2644,-3.2649,-3.2662,-3.2637,-3.2576,-3.2564,-3.2556,-3.2537,-3.2641,-3.2641,-3.2641,-3.2641,-3.2652,-3.2645,-3.2678,-3.2693,-3.2707,-3.2694,-3.2735,-3.2732,-3.2725,-3.2727,-3.271,-3.2684,-3.2677,-3.2669,-3.2659,-3.2641,-3.2769,-3.2769,-3.2769,-3.2711,-3.2705,-3.2742,-3.2735,-3.2742,-3.2748,-3.2786,-3.2804,-3.2791,-3.2774,-3.2728,-3.2722,-3.2681,-3.2668,-3.2648,-3.2633,-3.2599,0,0]},{"header":{"parameterUnit":"m.s-1","parameterCategory":1,"la1":30.2992,"la2":30.254,"lo1":-89.0895,"lo2":-89.0443,"dy":0.0025,"dx":0.0025,"nx":19,"ny":19,"refTime":"2026-05-15T21:00:00:Z","depth":0,"parameterNumber":3,"parameterNumberName":"V-component_of_WINDS"},"data":[0,0,0,3.2811,3.2808,3.2663,3.2662,3.2499,3.2498,0,0,0,0,0,0,0,0,0,0,0,3.2869,3.2869,3.2811,3.2808,3.2663,3.2662,3.25,3.2498,0,0,0,0,0,0,0,0,0,0,0,3.287,3.2869,3.2868,3.2807,3.2663,3.2662,3.25,3.2601,0,0,0,0,0,0,0,0,0,0,3.2737,3.2808,3.2869,3.2868,3.2807,3.2663,3.2662,3.2605,3.2594,3.2576,0,3.2565,0,3.253,3.2489,3.2489,0,0,0,3.2795,3.2817,3.2764,3.2868,3.2805,3.2664,3.2725,3.2599,3.2587,3.2562,3.2563,3.2556,3.2527,3.2488,3.2487,3.2429,3.2429,0,0,3.2803,3.2851,3.2772,3.2757,3.2783,3.2729,3.272,3.2591,3.2594,3.2562,3.2552,3.2524,3.2487,3.2486,3.2428,3.2429,0,0,0,3.2835,3.2857,3.2807,3.2764,3.2737,3.2726,3.2715,3.26,3.258,3.255,3.2522,3.2486,3.2485,3.2428,3.2429,3.2493,0,0,0,3.2839,3.2876,3.2811,3.2839,3.274,3.2667,3.2728,3.2589,3.2573,3.2523,3.2486,3.2483,3.2428,3.2428,3.249,3.2515,0,0,0,3.2873,3.2879,3.2864,3.2842,3.2782,3.2668,3.264,3.2584,3.2557,3.2488,3.2483,3.2427,3.2428,3.2488,3.2511,3.2514,0,0,0,3.2923,3.2921,3.2866,3.2853,3.2783,3.271,3.264,3.2582,3.2531,3.2486,3.2428,3.2429,3.2487,3.2508,3.2512,3.2527,3.2537,0,0,3.2947,3.2926,3.2914,3.2861,3.281,3.2728,3.2685,3.2591,3.2539,3.2468,3.2466,3.2491,3.251,3.2514,3.258,3.2589,0,0,0,3.2938,3.2931,3.2907,3.2863,3.2793,3.2735,3.2644,3.2609,3.2547,3.2514,3.2492,3.2502,3.2502,3.2506,3.2514,3.2511,3.2433,3.2433,3.2433,3.304,3.2977,3.2953,3.2873,3.2831,3.2739,3.2698,3.2635,3.258,3.2577,3.2555,3.2603,3.261,3.2616,3.2614,3.2557,3.2558,3.2558,3.2558,3.3069,3.3049,3.298,3.2934,3.2866,3.2825,3.2736,3.2699,3.265,3.2614,3.261,3.2576,3.2627,3.2622,3.2562,3.2561,3.2561,3.2561,3.256,3.3129,3.3108,3.3069,3.3,3.2954,3.2871,3.2829,3.2768,3.271,3.2707,3.2678,3.2677,3.2668,3.2698,3.2698,3.2698,3.2698,3.2698,3.2698,3.3206,3.3159,3.3133,3.3062,3.3026,3.2972,3.2881,3.2843,3.2786,3.2745,3.2744,3.2691,3.2645,3.2635,3.2701,3.27,3.27,3.27,3.27,3.3259,3.3238,3.3197,3.3163,3.3074,3.3034,3.2957,3.2888,3.2848,3.2829,3.2777,3.2753,3.2725,3.2718,3.271,3.2791,3.2791,3.2791,3.2791,3.3309,3.3291,3.3236,3.3185,3.3128,3.3056,3.301,3.294,3.2863,3.2834,3.2814,3.2797,3.2793,3.2767,3.276,3.275,3.284,3.284,3.284,3.3339,3.3312,3.3286,3.3214,3.3141,3.308,3.3036,3.2978,3.2886,3.2841,3.281,3.2808,3.278,3.2775,3.2728,3.2718,3.2699,0,0]}]]